Year,Month,Day,Hour,Minute,Value (Times are PST for temperature in C)
2021,04,18,00,00,15.80
2021,04,18,00,01,15.70
2021,04,18,00,02,15.50
2021,04,18,00,03,15.40
2021,04,18,00,04,15.30
2021,04,18,00,05,15.10
2021,04,18,00,06,15.00
2021,04,18,00,07,14.80
2021,04,18,00,08,14.70
2021,04,18,00,09,14.60
2021,04,18,00,10,14.50
2021,04,18,00,11,14.30
2021,04,18,00,12,14.20
2021,04,18,00,13,14.10
2021,04,18,00,14,14.00
2021,04,18,00,15,13.90
2021,04,18,00,16,13.80
2021,04,18,00,17,13.70
2021,04,18,00,18,13.70
2021,04,18,00,19,13.60
2021,04,18,00,20,13.50
2021,04,18,00,21,13.40
2021,04,18,00,22,13.40
2021,04,18,00,23,13.30
2021,04,18,00,24,13.30
2021,04,18,00,25,13.30
2021,04,18,00,26,13.30
2021,04,18,00,27,13.30
2021,04,18,00,28,13.30
2021,04,18,00,29,13.30
2021,04,18,00,30,13.30
2021,04,18,00,31,13.30
2021,04,18,00,32,13.30
2021,04,18,00,33,13.30
2021,04,18,00,34,13.40
2021,04,18,00,35,13.50
2021,04,18,00,36,13.50
2021,04,18,00,37,13.60
2021,04,18,00,38,13.60
2021,04,18,00,39,13.60
2021,04,18,00,40,13.60
2021,04,18,00,41,13.70
2021,04,18,00,42,13.70
2021,04,18,00,43,13.70
2021,04,18,00,44,13.70
2021,04,18,00,45,13.70
2021,04,18,00,46,13.70
2021,04,18,00,47,13.70
2021,04,18,00,48,13.70
2021,04,18,00,49,13.70
2021,04,18,00,50,13.70
2021,04,18,00,51,13.70
2021,04,18,00,52,13.70
2021,04,18,00,53,13.70
2021,04,18,00,54,13.70
2021,04,18,00,55,13.70
2021,04,18,00,56,13.80
2021,04,18,00,57,13.80
2021,04,18,00,58,13.90
2021,04,18,00,59,13.90
2021,04,18,01,00,13.90
2021,04,18,01,01,14.00
2021,04,18,01,02,14.00
2021,04,18,01,03,14.00
2021,04,18,01,04,14.00
2021,04,18,01,05,14.10
2021,04,18,01,06,14.10
2021,04,18,01,07,14.10
2021,04,18,01,08,14.10
2021,04,18,01,09,14.10
2021,04,18,01,10,14.10
2021,04,18,01,11,14.10
2021,04,18,01,12,14.00
2021,04,18,01,13,14.00
2021,04,18,01,14,13.90
2021,04,18,01,15,13.90
2021,04,18,01,16,13.80
2021,04,18,01,17,13.80
2021,04,18,01,18,13.80
2021,04,18,01,19,13.70
2021,04,18,01,20,13.70
2021,04,18,01,21,13.70
2021,04,18,01,22,13.70
2021,04,18,01,23,13.70
2021,04,18,01,24,13.70
2021,04,18,01,25,13.80
2021,04,18,01,26,13.80
2021,04,18,01,27,13.70
2021,04,18,01,28,13.70
2021,04,18,01,29,13.80
2021,04,18,01,30,13.80
2021,04,18,01,31,13.80
2021,04,18,01,32,13.80
2021,04,18,01,33,13.80
2021,04,18,01,34,13.80
2021,04,18,01,35,13.80
2021,04,18,01,36,13.70
2021,04,18,01,37,13.70
2021,04,18,01,38,13.70
2021,04,18,01,39,13.70
2021,04,18,01,40,13.70
2021,04,18,01,41,13.70
2021,04,18,01,42,13.70
2021,04,18,01,43,13.60
2021,04,18,01,44,13.60
2021,04,18,01,45,13.60
2021,04,18,01,46,13.60
2021,04,18,01,47,13.50
2021,04,18,01,48,13.50
2021,04,18,01,49,13.50
2021,04,18,01,50,13.40
2021,04,18,01,51,13.40
2021,04,18,01,52,13.30
2021,04,18,01,53,13.30
2021,04,18,01,54,13.30
2021,04,18,01,55,13.30
2021,04,18,01,56,13.30
2021,04,18,01,57,13.20
2021,04,18,01,58,13.20
2021,04,18,01,59,13.10
2021,04,18,02,00,13.10
2021,04,18,02,01,13.00
2021,04,18,02,02,13.00
2021,04,18,02,03,13.00
2021,04,18,02,04,12.90
2021,04,18,02,05,12.90
2021,04,18,02,06,12.90
2021,04,18,02,07,12.90
2021,04,18,02,08,12.80
2021,04,18,02,09,12.80
2021,04,18,02,10,12.80
2021,04,18,02,11,12.80
2021,04,18,02,12,12.80
2021,04,18,02,13,12.70
2021,04,18,02,14,12.70
2021,04,18,02,15,12.70
2021,04,18,02,16,12.60
2021,04,18,02,17,12.60
2021,04,18,02,18,12.50
2021,04,18,02,19,12.40
2021,04,18,02,20,12.30
2021,04,18,02,21,12.30
2021,04,18,02,22,12.20
2021,04,18,02,23,12.10
2021,04,18,02,24,12.00
2021,04,18,02,25,11.90
2021,04,18,02,26,11.80
2021,04,18,02,27,11.70
2021,04,18,02,28,11.60
2021,04,18,02,29,11.60
2021,04,18,02,30,11.40
2021,04,18,02,31,11.40
2021,04,18,02,32,11.30
2021,04,18,02,33,11.20
2021,04,18,02,34,11.20
2021,04,18,02,35,11.10
2021,04,18,02,36,11.10
2021,04,18,02,37,11.10
2021,04,18,02,38,11.00
2021,04,18,02,39,10.90
2021,04,18,02,40,10.90
2021,04,18,02,41,10.90
2021,04,18,02,42,10.80
2021,04,18,02,43,10.80
2021,04,18,02,44,10.70
2021,04,18,02,45,10.70
2021,04,18,02,46,10.70
2021,04,18,02,47,10.70
2021,04,18,02,48,10.60
2021,04,18,02,49,10.60
2021,04,18,02,50,10.60
2021,04,18,02,51,10.60
2021,04,18,02,52,10.60
2021,04,18,02,53,10.60
2021,04,18,02,54,10.60
2021,04,18,02,55,10.60
2021,04,18,02,56,10.60
2021,04,18,02,57,10.60
2021,04,18,02,58,10.60
2021,04,18,02,59,10.50
2021,04,18,03,00,10.40
2021,04,18,03,01,10.40
2021,04,18,03,02,10.40
2021,04,18,03,03,10.40
2021,04,18,03,04,10.40
2021,04,18,03,05,10.40
2021,04,18,03,06,10.40
2021,04,18,03,07,10.50
2021,04,18,03,08,10.60
2021,04,18,03,09,10.60
2021,04,18,03,10,10.60
2021,04,18,03,11,10.60
2021,04,18,03,12,10.70
2021,04,18,03,13,10.70
2021,04,18,03,14,10.80
2021,04,18,03,15,10.90
2021,04,18,03,16,10.90
2021,04,18,03,17,10.90
2021,04,18,03,18,10.90
2021,04,18,03,19,11.00
2021,04,18,03,20,11.10
2021,04,18,03,21,11.10
2021,04,18,03,22,11.10
2021,04,18,03,23,11.10
2021,04,18,03,24,11.10
2021,04,18,03,25,11.10
2021,04,18,03,26,11.10
2021,04,18,03,27,11.10
2021,04,18,03,28,11.10
2021,04,18,03,29,11.10
2021,04,18,03,30,11.10
2021,04,18,03,31,10.90
2021,04,18,03,32,10.90
2021,04,18,03,33,10.90
2021,04,18,03,34,10.90
2021,04,18,03,35,10.90
2021,04,18,03,36,10.80
2021,04,18,03,37,10.80
2021,04,18,03,38,10.70
2021,04,18,03,39,10.70
2021,04,18,03,40,10.80
2021,04,18,03,41,10.80
2021,04,18,03,42,10.80
2021,04,18,03,43,10.90
2021,04,18,03,44,10.90
2021,04,18,03,45,10.90
2021,04,18,03,46,10.90
2021,04,18,03,47,11.10
2021,04,18,03,48,11.10
2021,04,18,03,49,11.10
2021,04,18,03,50,11.10
2021,04,18,03,51,11.20
2021,04,18,03,52,11.20
2021,04,18,03,53,11.30
2021,04,18,03,54,11.30
2021,04,18,03,55,11.30
2021,04,18,03,56,11.30
2021,04,18,03,57,11.40
2021,04,18,03,58,11.40
2021,04,18,03,59,11.40
2021,04,18,04,00,11.40
2021,04,18,04,01,11.40
2021,04,18,04,02,11.40
2021,04,18,04,03,11.40
2021,04,18,04,04,11.40
2021,04,18,04,05,11.30
2021,04,18,04,06,11.30
2021,04,18,04,07,11.30
2021,04,18,04,08,11.30
2021,04,18,04,09,11.30
2021,04,18,04,10,11.20
2021,04,18,04,11,11.20
2021,04,18,04,12,11.20
2021,04,18,04,13,11.10
2021,04,18,04,14,11.10
2021,04,18,04,15,11.10
2021,04,18,04,16,11.10
2021,04,18,04,17,11.10
2021,04,18,04,18,11.10
2021,04,18,04,19,11.10
2021,04,18,04,20,11.10
2021,04,18,04,21,10.90
2021,04,18,04,22,10.90
2021,04,18,04,23,10.90
2021,04,18,04,24,10.90
2021,04,18,04,25,10.90
2021,04,18,04,26,10.90
2021,04,18,04,27,10.90
2021,04,18,04,28,10.90
2021,04,18,04,29,10.90
2021,04,18,04,30,10.90
2021,04,18,04,31,10.90
2021,04,18,04,32,10.90
2021,04,18,04,33,10.90
2021,04,18,04,34,10.90
2021,04,18,04,35,10.90
2021,04,18,04,36,10.90
2021,04,18,04,37,10.90
2021,04,18,04,38,10.90
2021,04,18,04,39,10.80
2021,04,18,04,40,10.80
2021,04,18,04,41,10.80
2021,04,18,04,42,10.80
2021,04,18,04,43,10.80
2021,04,18,04,44,10.70
2021,04,18,04,45,10.70
2021,04,18,04,46,10.60
2021,04,18,04,47,10.60
2021,04,18,04,48,10.60
2021,04,18,04,49,10.50
2021,04,18,04,50,10.40
2021,04,18,04,51,10.40
2021,04,18,04,52,10.40
2021,04,18,04,53,10.30
2021,04,18,04,54,10.30
2021,04,18,04,55,10.20
2021,04,18,04,56,10.20
2021,04,18,04,57,10.20
2021,04,18,04,58,10.20
2021,04,18,04,59,10.10
2021,04,18,05,00,10.10
2021,04,18,05,01,10.10
2021,04,18,05,02,10.10
2021,04,18,05,03,10.10
2021,04,18,05,04,10.10
2021,04,18,05,05,10.10
2021,04,18,05,06,10.10
2021,04,18,05,07,10.10
2021,04,18,05,08,10.10
2021,04,18,05,09,10.10
2021,04,18,05,10,10.20
2021,04,18,05,11,10.20
2021,04,18,05,12,10.20
2021,04,18,05,13,10.20
2021,04,18,05,14,10.20
2021,04,18,05,15,10.30
2021,04,18,05,16,10.30
2021,04,18,05,17,10.30
2021,04,18,05,18,10.30
2021,04,18,05,19,10.30
2021,04,18,05,20,10.30
2021,04,18,05,21,10.30
2021,04,18,05,22,10.30
2021,04,18,05,23,10.30
2021,04,18,05,24,10.30
2021,04,18,05,25,10.20
2021,04,18,05,26,10.20
2021,04,18,05,27,10.20
2021,04,18,05,28,10.20
2021,04,18,05,29,10.20
2021,04,18,05,30,10.20
2021,04,18,05,31,10.10
2021,04,18,05,32,10.10
2021,04,18,05,33,10.10
2021,04,18,05,34,10.10
2021,04,18,05,35,10.10
2021,04,18,05,36,10.10
2021,04,18,05,37,10.10
2021,04,18,05,38,10.10
2021,04,18,05,39,10.10
2021,04,18,05,40,10.10
2021,04,18,05,41,10.10
2021,04,18,05,42,10.10
2021,04,18,05,43,10.10
2021,04,18,05,44,10.10
2021,04,18,05,45,10.10
2021,04,18,05,46,10.10
2021,04,18,05,47,10.10
2021,04,18,05,48,10.10
2021,04,18,05,49,10.10
2021,04,18,05,50,10.10
2021,04,18,05,51,10.10
2021,04,18,05,52,10.20
2021,04,18,05,53,10.20
2021,04,18,05,54,10.20
2021,04,18,05,55,10.20
2021,04,18,05,56,10.30
2021,04,18,05,57,10.30
2021,04,18,05,58,10.30
2021,04,18,05,59,10.40
2021,04,18,06,00,10.40
2021,04,18,06,01,10.40
2021,04,18,06,02,10.40
2021,04,18,06,03,10.40
2021,04,18,06,04,10.50
2021,04,18,06,05,10.60
2021,04,18,06,06,10.60
2021,04,18,06,07,10.60
2021,04,18,06,08,10.60
2021,04,18,06,09,10.60
2021,04,18,06,10,10.60
2021,04,18,06,11,10.60
2021,04,18,06,12,10.60
2021,04,18,06,13,10.70
2021,04,18,06,14,10.70
2021,04,18,06,15,10.70
2021,04,18,06,16,10.70
2021,04,18,06,17,10.70
2021,04,18,06,18,10.70
2021,04,18,06,19,10.70
2021,04,18,06,20,10.70
2021,04,18,06,21,10.70
2021,04,18,06,22,10.60
2021,04,18,06,23,10.60
2021,04,18,06,24,10.60
2021,04,18,06,25,10.60
2021,04,18,06,26,10.60
2021,04,18,06,27,10.60
2021,04,18,06,28,10.60
2021,04,18,06,29,10.60
2021,04,18,06,30,10.60
2021,04,18,06,31,10.60
2021,04,18,06,32,10.70
2021,04,18,06,33,10.70
2021,04,18,06,34,10.70
2021,04,18,06,35,10.70
2021,04,18,06,36,10.70
2021,04,18,06,37,10.60
2021,04,18,06,38,10.60
2021,04,18,06,39,10.70
2021,04,18,06,40,10.70
2021,04,18,06,41,10.70
2021,04,18,06,42,10.70
2021,04,18,06,43,10.70
2021,04,18,06,44,10.80
2021,04,18,06,45,10.80
2021,04,18,06,46,10.80
2021,04,18,06,47,10.90
2021,04,18,06,48,10.90
2021,04,18,06,49,10.90
2021,04,18,06,50,10.90
2021,04,18,06,51,10.90
2021,04,18,06,52,10.90
2021,04,18,06,53,10.90
2021,04,18,06,54,10.90
2021,04,18,06,55,10.90
2021,04,18,06,56,10.90
2021,04,18,06,57,10.90
2021,04,18,06,58,10.90
2021,04,18,06,59,10.90
2021,04,18,07,00,10.90
2021,04,18,07,01,10.90
2021,04,18,07,02,10.90
2021,04,18,07,03,10.90
2021,04,18,07,04,10.90
2021,04,18,07,05,10.90
2021,04,18,07,06,10.90
2021,04,18,07,07,10.90
2021,04,18,07,08,10.90
2021,04,18,07,09,11.00
2021,04,18,07,10,11.10
2021,04,18,07,11,11.10
2021,04,18,07,12,11.10
2021,04,18,07,13,11.10
2021,04,18,07,14,11.10
2021,04,18,07,15,11.10
2021,04,18,07,16,11.10
2021,04,18,07,17,11.10
2021,04,18,07,18,11.10
2021,04,18,07,19,11.10
2021,04,18,07,20,11.10
2021,04,18,07,21,11.10
2021,04,18,07,22,11.10
2021,04,18,07,23,11.10
2021,04,18,07,24,11.10
2021,04,18,07,25,11.10
2021,04,18,07,26,11.10
2021,04,18,07,27,11.10
2021,04,18,07,28,11.10
2021,04,18,07,29,11.10
2021,04,18,07,30,11.10
2021,04,18,07,31,11.10
2021,04,18,07,32,11.10
2021,04,18,07,33,11.10
2021,04,18,07,34,11.10
2021,04,18,07,35,11.00
2021,04,18,07,36,10.90
2021,04,18,07,37,10.90
2021,04,18,07,38,10.90
2021,04,18,07,39,10.90
2021,04,18,07,40,10.90
2021,04,18,07,41,10.90
2021,04,18,07,42,10.90
2021,04,18,07,43,10.90
2021,04,18,07,44,10.90
2021,04,18,07,45,10.90
2021,04,18,07,46,10.90
2021,04,18,07,47,10.90
2021,04,18,07,48,10.90
2021,04,18,07,49,10.90
2021,04,18,07,50,10.90
2021,04,18,07,51,10.90
2021,04,18,07,52,10.90
2021,04,18,07,53,10.90
2021,04,18,07,54,10.90
2021,04,18,07,55,11.00
2021,04,18,07,56,11.10
2021,04,18,07,57,11.10
2021,04,18,07,58,11.10
2021,04,18,07,59,11.20
2021,04,18,08,00,11.20
2021,04,18,08,01,11.30
2021,04,18,08,02,11.30
2021,04,18,08,03,11.40
2021,04,18,08,04,11.40
2021,04,18,08,05,11.40
2021,04,18,08,06,11.50
2021,04,18,08,07,11.60
2021,04,18,08,08,11.60
2021,04,18,08,09,11.60
2021,04,18,08,10,11.70
2021,04,18,08,11,11.80
2021,04,18,08,12,11.80
2021,04,18,08,13,11.80
2021,04,18,08,14,11.90
2021,04,18,08,15,11.90
2021,04,18,08,16,12.00
2021,04,18,08,17,12.00
2021,04,18,08,18,12.10
2021,04,18,08,19,12.10
2021,04,18,08,20,12.10
2021,04,18,08,21,12.10
2021,04,18,08,22,12.20
2021,04,18,08,23,12.20
2021,04,18,08,24,12.20
2021,04,18,08,25,12.20
2021,04,18,08,26,12.20
2021,04,18,08,27,12.30
2021,04,18,08,28,12.30
2021,04,18,08,29,12.30
2021,04,18,08,30,12.30
2021,04,18,08,31,12.30
2021,04,18,08,32,12.40
2021,04,18,08,33,12.40
2021,04,18,08,34,12.50
2021,04,18,08,35,12.60
2021,04,18,08,36,12.60
2021,04,18,08,37,12.70
2021,04,18,08,38,12.70
2021,04,18,08,39,12.70
2021,04,18,08,40,12.80
2021,04,18,08,41,12.80
2021,04,18,08,42,12.80
2021,04,18,08,43,12.90
2021,04,18,08,44,13.00
2021,04,18,08,45,13.00
2021,04,18,08,46,13.10
2021,04,18,08,47,13.10
2021,04,18,08,48,13.20
2021,04,18,08,49,13.30
2021,04,18,08,50,13.30
2021,04,18,08,51,13.30
2021,04,18,08,52,13.40
2021,04,18,08,53,13.50
2021,04,18,08,54,13.50
2021,04,18,08,55,13.60
2021,04,18,08,56,13.60
2021,04,18,08,57,13.70
2021,04,18,08,58,13.70
2021,04,18,08,59,13.70
2021,04,18,09,00,13.70
2021,04,18,09,01,13.70
2021,04,18,09,02,13.70
2021,04,18,09,03,13.70
2021,04,18,09,04,13.70
2021,04,18,09,05,13.80
2021,04,18,09,06,13.80
2021,04,18,09,07,13.90
2021,04,18,09,08,13.90
2021,04,18,09,09,13.90
2021,04,18,09,10,14.00
2021,04,18,09,11,14.00
2021,04,18,09,12,14.00
2021,04,18,09,13,14.10
2021,04,18,09,14,14.10
2021,04,18,09,15,14.20
2021,04,18,09,16,14.20
2021,04,18,09,17,14.30
2021,04,18,09,18,14.40
2021,04,18,09,19,14.40
2021,04,18,09,20,14.50
2021,04,18,09,21,14.50
2021,04,18,09,22,14.50
2021,04,18,09,23,14.60
2021,04,18,09,24,14.60
2021,04,18,09,25,14.70
2021,04,18,09,26,14.80
2021,04,18,09,27,14.80
2021,04,18,09,28,14.80
2021,04,18,09,29,14.90
2021,04,18,09,30,14.90
2021,04,18,09,31,14.90
2021,04,18,09,32,14.80
2021,04,18,09,33,14.80
2021,04,18,09,34,14.80
2021,04,18,09,35,14.70
2021,04,18,09,36,14.70
2021,04,18,09,37,14.70
2021,04,18,09,38,14.70
2021,04,18,09,39,14.70
2021,04,18,09,40,14.80
2021,04,18,09,41,14.80
2021,04,18,09,42,14.80
2021,04,18,09,43,14.80
2021,04,18,09,44,14.80
2021,04,18,09,45,14.80
2021,04,18,09,46,14.90
2021,04,18,09,47,15.00
2021,04,18,09,48,15.10
2021,04,18,09,49,15.10
2021,04,18,09,50,15.20
2021,04,18,09,51,15.30
2021,04,18,09,52,15.30
2021,04,18,09,53,15.30
2021,04,18,09,54,15.30
2021,04,18,09,55,15.30
2021,04,18,09,56,15.30
2021,04,18,09,57,15.40
2021,04,18,09,58,15.40
2021,04,18,09,59,15.40
2021,04,18,10,00,15.40
2021,04,18,10,01,15.40
2021,04,18,10,02,15.30
2021,04,18,10,03,15.30
2021,04,18,10,04,15.40
2021,04,18,10,05,15.40
2021,04,18,10,06,15.50
2021,04,18,10,07,15.50
2021,04,18,10,08,15.50
2021,04,18,10,09,15.60
2021,04,18,10,10,15.50
2021,04,18,10,11,15.50
2021,04,18,10,12,15.50
2021,04,18,10,13,15.50
2021,04,18,10,14,15.50
2021,04,18,10,15,15.50
2021,04,18,10,16,15.50
2021,04,18,10,17,15.50
2021,04,18,10,18,15.50
2021,04,18,10,19,15.50
2021,04,18,10,20,15.50
2021,04,18,10,21,15.60
2021,04,18,10,22,15.60
2021,04,18,10,23,15.60
2021,04,18,10,24,15.70
2021,04,18,10,25,15.80
2021,04,18,10,26,15.80
2021,04,18,10,27,15.80
2021,04,18,10,28,15.90
2021,04,18,10,29,15.90
2021,04,18,10,30,15.90
2021,04,18,10,31,16.00
2021,04,18,10,32,16.10
2021,04,18,10,33,16.10
2021,04,18,10,34,16.10
2021,04,18,10,35,16.10
2021,04,18,10,36,16.20
2021,04,18,10,37,16.30
2021,04,18,10,38,16.40
2021,04,18,10,39,16.40
2021,04,18,10,40,16.60
2021,04,18,10,41,16.70
2021,04,18,10,42,16.90
2021,04,18,10,43,17.00
2021,04,18,10,44,17.10
2021,04,18,10,45,17.30
2021,04,18,10,46,17.30
2021,04,18,10,47,17.40
2021,04,18,10,48,17.50
2021,04,18,10,49,17.60
2021,04,18,10,50,17.60
2021,04,18,10,51,17.70
2021,04,18,10,52,17.70
2021,04,18,10,53,17.70
2021,04,18,10,54,17.60
2021,04,18,10,55,17.50
2021,04,18,10,56,17.40
2021,04,18,10,57,17.40
2021,04,18,10,58,17.40
2021,04,18,10,59,17.30
2021,04,18,11,00,17.30
2021,04,18,11,01,17.30
2021,04,18,11,02,17.40
2021,04,18,11,03,17.50
2021,04,18,11,04,17.50
2021,04,18,11,05,17.50
2021,04,18,11,06,17.60
2021,04,18,11,07,17.60
2021,04,18,11,08,17.50
2021,04,18,11,09,17.60
2021,04,18,11,10,17.60
2021,04,18,11,11,17.70
2021,04,18,11,12,17.70
2021,04,18,11,13,17.60
2021,04,18,11,14,17.50
2021,04,18,11,15,17.40
2021,04,18,11,16,17.20
2021,04,18,11,17,17.10
2021,04,18,11,18,17.10
2021,04,18,11,19,17.10
2021,04,18,11,20,17.10
2021,04,18,11,21,17.20
2021,04,18,11,22,17.10
2021,04,18,11,23,17.00
2021,04,18,11,24,17.00
2021,04,18,11,25,17.00
2021,04,18,11,26,17.00
2021,04,18,11,27,17.00
2021,04,18,11,28,16.90
2021,04,18,11,29,16.90
2021,04,18,11,30,16.80
2021,04,18,11,31,16.80
2021,04,18,11,32,16.80
2021,04,18,11,33,16.80
2021,04,18,11,34,16.90
2021,04,18,11,35,17.00
2021,04,18,11,36,17.00
2021,04,18,11,37,16.90
2021,04,18,11,38,16.90
2021,04,18,11,39,16.80
2021,04,18,11,40,16.80
2021,04,18,11,41,16.80
2021,04,18,11,42,16.80
2021,04,18,11,43,16.80
2021,04,18,11,44,16.80
2021,04,18,11,45,16.80
2021,04,18,11,46,16.90
2021,04,18,11,47,16.90
2021,04,18,11,48,16.90
2021,04,18,11,49,16.90
2021,04,18,11,50,17.00
2021,04,18,11,51,17.10
2021,04,18,11,52,17.20
2021,04,18,11,53,17.30
2021,04,18,11,54,17.30
2021,04,18,11,55,17.20
2021,04,18,11,56,17.20
2021,04,18,11,57,17.10
2021,04,18,11,58,17.10
2021,04,18,11,59,17.10
2021,04,18,12,00,17.20
2021,04,18,12,01,17.30
2021,04,18,12,02,17.20
2021,04,18,12,03,17.10
2021,04,18,12,04,17.10
2021,04,18,12,05,17.10
2021,04,18,12,06,17.10
2021,04,18,12,07,17.00
2021,04,18,12,08,17.00
2021,04,18,12,09,17.00
2021,04,18,12,10,17.10
2021,04,18,12,11,17.00
2021,04,18,12,12,17.10
2021,04,18,12,13,17.20
2021,04,18,12,14,17.20
2021,04,18,12,15,17.20
2021,04,18,12,16,17.20
2021,04,18,12,17,17.10
2021,04,18,12,18,17.10
2021,04,18,12,19,17.10
2021,04,18,12,20,17.20
2021,04,18,12,21,17.30
2021,04,18,12,22,17.30
2021,04,18,12,23,17.30
2021,04,18,12,24,17.40
2021,04,18,12,25,17.50
2021,04,18,12,26,17.60
2021,04,18,12,27,17.70
2021,04,18,12,28,17.80
2021,04,18,12,29,17.90
2021,04,18,12,30,18.00
2021,04,18,12,31,18.10
2021,04,18,12,32,17.90
2021,04,18,12,33,17.90
2021,04,18,12,34,17.90
2021,04,18,12,35,18.00
2021,04,18,12,36,18.10
2021,04,18,12,37,18.10
2021,04,18,12,38,18.10
2021,04,18,12,39,18.20
2021,04,18,12,40,18.10
2021,04,18,12,41,18.10
2021,04,18,12,42,18.20
2021,04,18,12,43,18.30
2021,04,18,12,44,18.30
2021,04,18,12,45,18.30
2021,04,18,12,46,18.30
2021,04,18,12,47,18.30
2021,04,18,12,48,18.40
2021,04,18,12,49,18.40
2021,04,18,12,50,18.50
2021,04,18,12,51,18.50
2021,04,18,12,52,18.60
2021,04,18,12,53,18.60
2021,04,18,12,54,18.70
2021,04,18,12,55,18.80
2021,04,18,12,56,18.80
2021,04,18,12,57,18.80
2021,04,18,12,58,18.80
2021,04,18,12,59,18.70
2021,04,18,13,00,18.70
2021,04,18,13,01,18.60
2021,04,18,13,02,18.50
2021,04,18,13,03,18.30
2021,04,18,13,04,18.30
2021,04,18,13,05,18.40
2021,04,18,13,06,18.40
2021,04,18,13,07,18.50
2021,04,18,13,08,18.50
2021,04,18,13,09,18.40
2021,04,18,13,10,18.30
2021,04,18,13,11,18.30
2021,04,18,13,12,18.30
2021,04,18,13,13,18.40
2021,04,18,13,14,18.40
2021,04,18,13,15,18.40
2021,04,18,13,16,18.40
2021,04,18,13,17,18.40
2021,04,18,13,18,18.50
2021,04,18,13,19,18.60
2021,04,18,13,20,18.70
2021,04,18,13,21,18.80
2021,04,18,13,22,18.90
2021,04,18,13,23,18.90
2021,04,18,13,24,18.90
2021,04,18,13,25,18.90
2021,04,18,13,26,18.90
2021,04,18,13,27,18.80
2021,04,18,13,28,18.70
2021,04,18,13,29,18.70
2021,04,18,13,30,18.70
2021,04,18,13,31,18.70
2021,04,18,13,32,18.70
2021,04,18,13,33,18.70
2021,04,18,13,34,18.70
2021,04,18,13,35,18.70
2021,04,18,13,36,18.60
2021,04,18,13,37,18.60
2021,04,18,13,38,18.50
2021,04,18,13,39,18.50
2021,04,18,13,40,18.50
2021,04,18,13,41,18.50
2021,04,18,13,42,18.60
2021,04,18,13,43,18.60
2021,04,18,13,44,18.50
2021,04,18,13,45,18.30
2021,04,18,13,46,18.30
2021,04,18,13,47,18.30
2021,04,18,13,48,18.20
2021,04,18,13,49,18.20
2021,04,18,13,50,18.20
2021,04,18,13,51,18.20
2021,04,18,13,52,18.30
2021,04,18,13,53,18.40
2021,04,18,13,54,18.40
2021,04,18,13,55,18.30
2021,04,18,13,56,18.30
2021,04,18,13,57,18.30
2021,04,18,13,58,18.40
2021,04,18,13,59,18.40
2021,04,18,14,00,18.50
2021,04,18,14,01,18.50
2021,04,18,14,02,18.60
2021,04,18,14,03,18.70
2021,04,18,14,04,18.70
2021,04,18,14,05,18.70
2021,04,18,14,06,18.70
2021,04,18,14,07,18.80
2021,04,18,14,08,18.80
2021,04,18,14,09,18.90
2021,04,18,14,10,18.90
2021,04,18,14,11,18.90
2021,04,18,14,12,18.90
2021,04,18,14,13,18.90
2021,04,18,14,14,18.90
2021,04,18,14,15,19.10
2021,04,18,14,16,19.10
2021,04,18,14,17,19.10
2021,04,18,14,18,19.10
2021,04,18,14,19,19.10
2021,04,18,14,20,19.10
2021,04,18,14,21,19.10
2021,04,18,14,22,19.10
2021,04,18,14,23,19.10
2021,04,18,14,24,19.20
2021,04,18,14,25,19.20
2021,04,18,14,26,19.20
2021,04,18,14,27,19.20
2021,04,18,14,28,19.20
2021,04,18,14,29,19.20
2021,04,18,14,30,19.20
2021,04,18,14,31,19.20
2021,04,18,14,32,19.10
2021,04,18,14,33,19.10
2021,04,18,14,34,19.00
2021,04,18,14,35,18.90
2021,04,18,14,36,18.90
2021,04,18,14,37,18.90
2021,04,18,14,38,19.00
2021,04,18,14,39,19.10
2021,04,18,14,40,19.20
2021,04,18,14,41,19.40
2021,04,18,14,42,19.50
2021,04,18,14,43,19.60
2021,04,18,14,44,19.70
2021,04,18,14,45,19.80
2021,04,18,14,46,19.80
2021,04,18,14,47,19.80
2021,04,18,14,48,19.80
2021,04,18,14,49,19.80
2021,04,18,14,50,19.80
2021,04,18,14,51,19.80
2021,04,18,14,52,19.90
2021,04,18,14,53,19.90
2021,04,18,14,54,19.90
2021,04,18,14,55,20.00
2021,04,18,14,56,19.90
2021,04,18,14,57,19.90
2021,04,18,14,58,19.90
2021,04,18,14,59,19.90
2021,04,18,15,00,19.90
2021,04,18,15,01,19.80
2021,04,18,15,02,19.90
2021,04,18,15,03,19.90
2021,04,18,15,04,19.90
2021,04,18,15,05,19.90
2021,04,18,15,06,19.90
2021,04,18,15,07,19.90
2021,04,18,15,08,19.90
2021,04,18,15,09,19.90
2021,04,18,15,10,19.90
2021,04,18,15,11,19.90
2021,04,18,15,12,19.90
2021,04,18,15,13,19.90
2021,04,18,15,14,19.90
2021,04,18,15,15,19.90
2021,04,18,15,16,20.00
2021,04,18,15,17,20.10
2021,04,18,15,18,20.20
2021,04,18,15,19,20.20
2021,04,18,15,20,20.20
2021,04,18,15,21,20.20
2021,04,18,15,22,20.20
2021,04,18,15,23,20.10
2021,04,18,15,24,20.10
2021,04,18,15,25,20.10
2021,04,18,15,26,20.10
2021,04,18,15,27,20.10
2021,04,18,15,28,20.10
2021,04,18,15,29,20.00
2021,04,18,15,30,20.10
2021,04,18,15,31,20.10
2021,04,18,15,32,20.10
2021,04,18,15,33,20.20
2021,04,18,15,34,20.30
2021,04,18,15,35,20.40
2021,04,18,15,36,20.50
2021,04,18,15,37,20.60
2021,04,18,15,38,20.70
2021,04,18,15,39,20.70
2021,04,18,15,40,20.70
2021,04,18,15,41,20.50
2021,04,18,15,42,20.40
2021,04,18,15,43,20.30
2021,04,18,15,44,20.20
2021,04,18,15,45,20.20
2021,04,18,15,46,20.00
2021,04,18,15,47,19.90
2021,04,18,15,48,19.90
2021,04,18,15,49,19.80
2021,04,18,15,50,19.70
2021,04,18,15,51,19.60
2021,04,18,15,52,19.50
2021,04,18,15,53,19.40
2021,04,18,15,54,19.40
2021,04,18,15,55,19.40
2021,04,18,15,56,19.40
2021,04,18,15,57,19.40
2021,04,18,15,58,19.40
2021,04,18,15,59,19.30
2021,04,18,16,00,19.30
2021,04,18,16,01,19.30
2021,04,18,16,02,19.20
2021,04,18,16,03,19.10
2021,04,18,16,04,19.10
2021,04,18,16,05,19.10
2021,04,18,16,06,19.20
2021,04,18,16,07,19.30
2021,04,18,16,08,19.30
2021,04,18,16,09,19.30
2021,04,18,16,10,19.30
2021,04,18,16,11,19.30
2021,04,18,16,12,19.30
2021,04,18,16,13,19.20
2021,04,18,16,14,19.20
2021,04,18,16,15,19.20
2021,04,18,16,16,19.20
2021,04,18,16,17,19.30
2021,04,18,16,18,19.30
2021,04,18,16,19,19.20
2021,04,18,16,20,19.20
2021,04,18,16,21,19.20
2021,04,18,16,22,19.30
2021,04,18,16,23,19.30
2021,04,18,16,24,19.30
2021,04,18,16,25,19.30
2021,04,18,16,26,19.30
2021,04,18,16,27,19.30
2021,04,18,16,28,19.30
2021,04,18,16,29,19.30
2021,04,18,16,30,19.20
2021,04,18,16,31,19.20
2021,04,18,16,32,19.30
2021,04,18,16,33,19.40
2021,04,18,16,34,19.40
2021,04,18,16,35,19.50
2021,04,18,16,36,19.60
2021,04,18,16,37,19.60
2021,04,18,16,38,19.60
2021,04,18,16,39,19.60
2021,04,18,16,40,19.70
2021,04,18,16,41,19.80
2021,04,18,16,42,19.90
2021,04,18,16,43,19.90
2021,04,18,16,44,20.00
2021,04,18,16,45,20.10
2021,04,18,16,46,20.10
2021,04,18,16,47,20.20
2021,04,18,16,48,20.20
2021,04,18,16,49,20.20
2021,04,18,16,50,20.20
2021,04,18,16,51,20.20
2021,04,18,16,52,20.20
2021,04,18,16,53,20.20
2021,04,18,16,54,20.30
2021,04,18,16,55,20.30
2021,04,18,16,56,20.20
2021,04,18,16,57,20.30
2021,04,18,16,58,20.20
2021,04,18,16,59,20.20
2021,04,18,17,00,20.30
2021,04,18,17,01,20.20
2021,04,18,17,02,20.20
2021,04,18,17,03,20.10
2021,04,18,17,04,20.10
2021,04,18,17,05,19.90
2021,04,18,17,06,19.90
2021,04,18,17,07,19.90
2021,04,18,17,08,19.90
2021,04,18,17,09,19.90
2021,04,18,17,10,19.90
2021,04,18,17,11,19.90
2021,04,18,17,12,19.90
2021,04,18,17,13,19.90
2021,04,18,17,14,19.90
2021,04,18,17,15,19.90
2021,04,18,17,16,19.90
2021,04,18,17,17,19.90
2021,04,18,17,18,19.90
2021,04,18,17,19,19.80